Location: Bowman Observatory
(41.0326°N, 73.6210°W)
Time: 14:22:35
(UTC-04:00)

Cosmos 2297 - Visible Passes

Search period start: 26 May 2016 00:00
Search period end: 05 June 2016 00:00
Orbit: 836 x 858 km, 71.0° (Epoch: 25 May)

Date Brightness Start Highest point End Pass type
(mag) Time Alt. Az. Time Alt. Az. Time Alt. Az.
26 May 4.4 21:14:23 10° NNW 21:19:55 52° WSW 21:25:26 10° S visible
27 May 4.4 21:01:02 10° NNW 21:06:36 53° WSW 21:12:07 10° S visible
28 May 4.5 20:47:42 10° NNW 20:53:16 54° WSW 20:58:49 10° S visible
